When you browse on this site, cookies collect data to enhance your experience and personalize the content and advertising you see.
Visit our Privacy Policy to learn more. By continuing to use the site, you agree to this use of cookies and data.
  • In Switzerland
  • List of Countries
  • For 7 days
  • Water Temperature
  • Weather Map
  • Weather Widgets
  • user-avatar
    Login

    Hourly Weather Bojsi

    Today, 1 June, Monday

    Time Temperature Precipitation Wind Pressure Humidity
    00:00 +19°C° 0 mm 1 mps 685 mmHg 55%
    01:00 +19°C° 0 mm 1 mps 685 mmHg 55%
    02:00 +18°C° 0 mm 1 mps 685 mmHg 56%
    03:00 +17°C° 0 mm 2 mps 685 mmHg 56%
    04:00 +17°C° 0 mm 2 mps 685 mmHg 58%
    05:00 +17°C° 0 mm 2 mps 686 mmHg 58%
    06:00 +18°C° 0 mm 2 mps 686 mmHg 58%
    07:00 +18°C° 0 mm 3 mps 687 mmHg 58%
    08:00 +20°C° 0 mm 4 mps 687 mmHg 55%
    09:00 +21°C° 0 mm 5 mps 687 mmHg 52%
    10:00 +22°C° 0 mm 6 mps 687 mmHg 49%
    11:00 +22°C° 0 mm 5 mps 688 mmHg 48%
    12:00 +23°C° 0 mm 5 mps 688 mmHg 48%
    13:00 +23°C° 0 mm 5 mps 688 mmHg 47%
    14:00 +23°C° 0 mm 5 mps 688 mmHg 47%
    15:00 +23°C° 0 mm 4 mps 688 mmHg 46%
    16:00 +23°C° 0 mm 4 mps 689 mmHg 46%
    17:00 +22°C° 0 mm 3 mps 689 mmHg 50%
    18:00 +21°C° 0 mm 2 mps 689 mmHg 53%
    19:00 +21°C° 0 mm 1 mps 689 mmHg 57%
    20:00 +20°C° 0 mm 1 mps 689 mmHg 58%
    21:00 +19°C° 0 mm 1 mps 689 mmHg 60%
    22:00 +18°C° 0 mm 1 mps 689 mmHg 61%
    23:00 +18°C° 0 mm 1 mps 689 mmHg 62%

    Tomorrow, 2 June, Tuesday

    Time Temperature Precipitation Wind Pressure Humidity
    00:00 +16°C° 0 mm 1 mps 689 mmHg 63%
    01:00 +16°C° 0 mm 1 mps 689 mmHg 64%
    02:00 +15°C° 0 mm 1 mps 689 mmHg 66%
    03:00 +15°C° 0 mm 1 mps 689 mmHg 69%
    04:00 +14°C° 0 mm 1 mps 689 mmHg 71%
    05:00 +16°C° 0 mm 1 mps 690 mmHg 65%
    06:00 +19°C° 0 mm 1 mps 690 mmHg 59%
    07:00 +19°C° 0 mm 0 mps 691 mmHg 53%
    08:00 +22°C° 0 mm 1 mps 691 mmHg 48%
    09:00 +24°C° 0 mm 1 mps 691 mmHg 43%
    10:00 +25°C° 0 mm 2 mps 691 mmHg 38%
    11:00 +26°C° 0 mm 2 mps 691 mmHg 35%
    12:00 +27°C° 0 mm 2 mps 691 mmHg 32%
    13:00 +28°C° 0 mm 2 mps 690 mmHg 29%
    14:00 +28°C° 0 mm 2 mps 690 mmHg 30%
    15:00 +28°C° 0 mm 2 mps 690 mmHg 31%
    16:00 +28°C° 0 mm 2 mps 690 mmHg 33%
    17:00 +27°C° 0 mm 2 mps 689 mmHg 37%
    18:00 +25°C° 0 mm 1 mps 689 mmHg 42%
    19:00 +24°C° 0 mm 1 mps 689 mmHg 47%
    20:00 +23°C° 0 mm 1 mps 689 mmHg 47%
    21:00 +23°C° 0 mm 1 mps 689 mmHg 46%
    22:00 +22°C° 0 mm 1 mps 689 mmHg 46%
    23:00 +22°C° 0 mm 1 mps 689 mmHg 47%

    Day after tomorrow, 3 June, Wednesday

    Time Temperature Precipitation Wind Pressure Humidity
    00:00 +21°C° 0 mm 2 mps 689 mmHg 48%
    01:00 +20°C° 0 mm 2 mps 689 mmHg 49%
    02:00 +19°C° 0 mm 2 mps 688 mmHg 51%
    03:00 +18°C° 0 mm 2 mps 688 mmHg 53%
    04:00 +17°C° 0 mm 2 mps 688 mmHg 55%
    05:00 +18°C° 0 mm 2 mps 688 mmHg 54%
    06:00 +19°C° 0 mm 2 mps 688 mmHg 52%
    07:00 +20°C° 0 mm 3 mps 689 mmHg 51%
    08:00 +21°C° 0 mm 3 mps 689 mmHg 45%
    09:00 +23°C° 0 mm 4 mps 689 mmHg 40%
    10:00 +25°C° 0 mm 4 mps 689 mmHg 34%
    11:00 +26°C° 0 mm 4 mps 689 mmHg 33%
    12:00 +27°C° 0 mm 4 mps 688 mmHg 32%
    13:00 +27°C° 0 mm 4 mps 688 mmHg 30%
    14:00 +27°C° 0 mm 4 mps 688 mmHg 31%
    15:00 +27°C° 0 mm 3 mps 687 mmHg 31%
    16:00 +27°C° 0 mm 3 mps 687 mmHg 31%
    17:00 +26°C° 0 mm 2 mps 686 mmHg 35%
    18:00 +25°C° 0 mm 2 mps 686 mmHg 39%
    19:00 +23°C° 0 mm 1 mps 686 mmHg 42%
    20:00 +22°C° 0 mm 1 mps 686 mmHg 44%
    21:00 +21°C° 0 mm 1 mps 686 mmHg 46%
    22:00 +20°C° 0 mm 1 mps 685 mmHg 48%
    23:00 +19°C° 0 mm 1 mps 685 mmHg 50%

    4 June, Thursday

    Time Temperature Precipitation Wind Pressure Humidity
    00:00 +18°C° 0 mm 1 mps 685 mmHg 53%
    01:00 +18°C° 0 mm 1 mps 685 mmHg 55%
    02:00 +16°C° 0 mm 1 mps 685 mmHg 57%
    03:00 +16°C° 0 mm 1 mps 685 mmHg 59%
    04:00 +15°C° 0 mm 1 mps 684 mmHg 60%
    05:00 +18°C° 0 mm 1 mps 685 mmHg 57%
    06:00 +18°C° 0 mm 2 mps 685 mmHg 53%
    07:00 +20°C° 0 mm 2 mps 685 mmHg 50%
    08:00 +21°C° 0 mm 2 mps 685 mmHg 46%
    09:00 +24°C° 0 mm 3 mps 685 mmHg 42%
    10:00 +26°C° 0 mm 3 mps 686 mmHg 38%
    11:00 +26°C° 0 mm 3 mps 685 mmHg 36%
    12:00 +27°C° 0 mm 4 mps 685 mmHg 34%
    13:00 +28°C° 0 mm 4 mps 684 mmHg 32%
    14:00 +28°C° 0 mm 4 mps 684 mmHg 32%
    15:00 +28°C° 0 mm 4 mps 684 mmHg 32%
    16:00 +28°C° 0 mm 3 mps 683 mmHg 32%
    17:00 +27°C° 0 mm 3 mps 683 mmHg 37%
    18:00 +25°C° 0 mm 2 mps 683 mmHg 42%
    19:00 +24°C° 0 mm 1 mps 682 mmHg 47%
    20:00 +23°C° 0 mm 1 mps 682 mmHg 47%
    21:00 +22°C° 0 mm 1 mps 682 mmHg 48%
    22:00 +21°C° 0 mm 1 mps 682 mmHg 49%
    23:00 +20°C° 0 mm 1 mps 682 mmHg 50%

    5 June, Friday

    Time Temperature Precipitation Wind Pressure Humidity
    00:00 +20°C° 0 mm 1 mps 682 mmHg 50%
    01:00 +19°C° 0 mm 1 mps 681 mmHg 51%
    02:00 +19°C° 0 mm 1 mps 681 mmHg 52%
    03:00 +19°C° 0 mm 1 mps 681 mmHg 53%
    04:00 +18°C° 0 mm 1 mps 681 mmHg 54%
    05:00 +20°C° 0 mm 1 mps 681 mmHg 51%
    06:00 +22°C° 0 mm 1 mps 681 mmHg 47%
    07:00 +24°C° 0 mm 2 mps 681 mmHg 43%
    08:00 +25°C° 0 mm 2 mps 681 mmHg 40%
    09:00 +27°C° 0 mm 2 mps 681 mmHg 37%
    10:00 +29°C° 0 mm 3 mps 680 mmHg 35%
    11:00 +30°C° 0 mm 3 mps 680 mmHg 32%
    12:00 +31°C° 0 mm 3 mps 680 mmHg 30%
    13:00 +33°C° 0 mm 3 mps 679 mmHg 28%
    14:00 +32°C° 0 mm 2 mps 678 mmHg 26%
    15:00 +34°C° 0 mm 2 mps 677 mmHg 24%
    16:00 +33°C° 0 mm 1 mps 676 mmHg 22%
    17:00 +31°C° 0 mm 1 mps 676 mmHg 28%
    18:00 +29°C° 0 mm 1 mps 676 mmHg 33%
    19:00 +27°C° 0 mm 1 mps 675 mmHg 39%
    20:00 +25°C° 0.7 mm 1 mps 676 mmHg 49%
    21:00 +23°C° 0.7 mm 2 mps 676 mmHg 58%
    22:00 +20°C° 0.7 mm 2 mps 677 mmHg 68%
    23:00 +19°C° 0.2 mm 3 mps 677 mmHg 74%

    6 June, Saturday

    Time Temperature Precipitation Wind Pressure Humidity
    00:00 +17°C° 0.2 mm 5 mps 677 mmHg 80%
    01:00 +15°C° 0.2 mm 6 mps 677 mmHg 86%
    02:00 +15°C° 0.2 mm 5 mps 678 mmHg 82%
    03:00 +16°C° 0.2 mm 3 mps 678 mmHg 79%
    04:00 +16°C° 0.2 mm 2 mps 679 mmHg 75%
    05:00 +16°C° 0.1 mm 2 mps 680 mmHg 70%
    06:00 +17°C° 0.1 mm 3 mps 680 mmHg 65%
    07:00 +17°C° 0.1 mm 4 mps 681 mmHg 60%
    08:00 +18°C° 0 mm 4 mps 681 mmHg 55%
    09:00 +19°C° 0 mm 3 mps 681 mmHg 49%
    10:00 +20°C° 0 mm 3 mps 682 mmHg 44%
    11:00 +21°C° 0.1 mm 3 mps 681 mmHg 44%
    12:00 +21°C° 0.1 mm 2 mps 681 mmHg 43%
    13:00 +21°C° 0.1 mm 2 mps 681 mmHg 43%
    14:00 +21°C° 0.1 mm 2 mps 681 mmHg 45%
    15:00 +21°C° 0.1 mm 2 mps 680 mmHg 46%
    16:00 +20°C° 0.1 mm 3 mps 680 mmHg 48%
    17:00 +19°C° 0.2 mm 4 mps 680 mmHg 51%
    18:00 +16°C° 0.2 mm 6 mps 680 mmHg 54%
    19:00 +15°C° 0.2 mm 8 mps 681 mmHg 57%
    20:00 +13°C° 0.1 mm 6 mps 681 mmHg 61%
    21:00 +12°C° 0.1 mm 5 mps 682 mmHg 65%
    22:00 +10°C° 0.1 mm 4 mps 682 mmHg 70%
    23:00 +10°C° 0 mm 3 mps 683 mmHg 69%
    Show more